Location: Vihti�l�
(61.3833°N, 23.0667°E)
Time: 04:32:47
(UTC+00:00)

NOSS 2-2 (E) - Pass Details

Date: 29 November 2020
Orbit: 465 x 1741 km, 63.3° (Epoch: 16 January)

Event Time Altitude Azimuth Distance (km) Brightness Sun altitude
Exits shadow 05:09:47 19° 285° (WNW) 1,479 4.9 -12.7°
Maximum altitude 05:12:55 72° 7° (N) 746 3.9 -12.3°
Drops below altitude 10° 05:18:41 10° 92° (E) 2,577 7.9 -11.7°
Sets 05:21:40 0° 95° (E) 3,740 9.1 -11.4°
